This is the latest recevied weather packets stored in our database for station/object KC4BAM. If no packets are shown the sender has not sent any weather packets the latest 10 day(s).
| Time | Temp. | Humidity | Pressure | Rain* | Wind** | Luminosity | Snow |
|---|---|---|---|---|---|---|---|
| 1778024038 | 17.22° C | 86% | 998.4 hPa | 0 mm | - | 9 W/m² | - |
| 1778023735 | 17.22° C | 86% | 998.5 hPa | 0 mm | - | 12 W/m² | - |
| 1778023433 | 17.22° C | 86% | 998.8 hPa | 0 mm | - | 19 W/m² | - |
| 1778023130 | 17.22° C | 84% | 998.7 hPa | 0 mm | - | 7 W/m² | - |
| 1778022827 | 17.22° C | 83% | 998.6 hPa | 3.05 mm | - | 13 W/m² | - |
| 1778022525 | 17.78° C | 83% | 998.5 hPa | 3.05 mm | - | 14 W/m² | - |
| 1778022222 | 17.78° C | 82% | 998.6 hPa | 1.78 mm | - | 13 W/m² | - |
| 1778021919 | 17.78° C | 81% | 998.7 hPa | 0 mm | - | 15 W/m² | - |
| 1778021616 | 17.78° C | 81% | 998.9 hPa | 0 mm | - | 20 W/m² | - |
| 1778021311 | 17.78° C | 81% | 998.9 hPa | 0 mm | - | 20 W/m² | - |
| 1778021009 | 17.78° C | 80% | 998.8 hPa | 1.27 mm | - | 26 W/m² | - |
| 1778020706 | 17.78° C | 79% | 998.8 hPa | 4.32 mm | - | 42 W/m² | - |
| 1778020403 | 17.78° C | 77% | 998.8 hPa | 4.83 mm | - | 43 W/m² | - |
| 1778020099 | 18.33° C | 75% | 998.7 hPa | 3.56 mm | - | 30 W/m² | - |
| 1778019795 | 18.89° C | 71% | 999 hPa | 0 mm | - | 25 W/m² | - |
| 1778019493 | 21.67° C | 61% | 998.9 hPa | 0 mm | - | 23 W/m² | - |
| 1778019189 | 22.22° C | 56% | 998.9 hPa | 0 mm | - | 18 W/m² | - |
| 1778018886 | 22.22° C | 56% | 998.6 hPa | 0 mm | - | 77 W/m² | - |
| 1778018583 | 22.78° C | 55% | 998.7 hPa | 0 mm | - | 90 W/m² | - |
| 1778018281 | 22.78° C | 55% | 998.7 hPa | 0 mm | - | 115 W/m² | - |
| 1778017979 | 22.78° C | 55% | 998.7 hPa | 0 mm | - | 107 W/m² | - |
| 1778017676 | 22.78° C | 54% | 998.6 hPa | 0 mm | - | 86 W/m² | - |
| 1778017374 | 22.78° C | 54% | 998.4 hPa | 0 mm | - | 258 W/m² | - |
| 1778017071 | 22.78° C | 55% | 998.4 hPa | 0 mm | - | 320 W/m² | - |
| 1778016768 | 22.78° C | 55% | 998.6 hPa | 0 mm | - | 147 W/m² | - |
* Rain latest hour (hover to see other rain measurements)
** Current wind speed in m/s (hover to see current wind gust speed)